Weather History for Immokalee Regional Airport [I, FL

Change the Weather History Date:

Friday, February 7, 2014

  Actual Average (KFMY) Record (KFMY)
Temperature  
Mean Temperature 70 °F 66 °F  
Max Temperature 84 °F 76 °F 86 °F (1986)
Min Temperature 57 °F 55 °F 33 °F (1978)
Degree Days  
Heating Degree Days 0 2  
Month to date heating degree days 20  
Since 1 July heating degree days 221  
Cooling Degree Days 6 3  
Month to date cooling degree days 21  
Year to date cooling degree days 104  
Growing Degree Days 20 (Base 50)    
Moisture  
Dew Point 69 °F    
Average Humidity 76    
Maximum Humidity 100    
Minimum Humidity 55    
Precipitation  
Precipitation 0.01 in 0.06 in 1.50 in (1947)
Month to date precipitation 0.48  
Year to date precipitation 2.42  
Sea Level Pressure  
Sea Level Pressure 30.12 in    
Wind  
Wind Speed 7 mph (NNE)    
Max Wind Speed 12 mph    
Max Gust Speed 18 mph    
Visibility 6 miles    
Events      
T = Trace of Precipitation, MM = Missing Value Source: NWS Daily Summary

Daily Weather History Graph

Daily Weather History Graph

Search for Another Location

Airport:

Trip Planner

Search our weather history database for the weather conditions in past years. The results will help you decide how hot, cold, wet, or windy it might be!

Date:

Astronomy

Feb. 07, 2014 Rise Set
Actual Time 7:06 AM EST 6:12 PM EST
Civil Twilight 6:43 AM EST 6:36 PM EST
Nautical Twilight 6:15 AM EST 7:04 PM EST
Astronomical Twilight 5:48 AM EST 7:31 PM EST
Moon 12:28 PM EST (2/7) 1:17 AM EST (2/7)
Length of Visible Light 11h 53m
Length of Day
11h 05m
First Quarter, 59% of the Moon is Illuminated
Feb 7
First Quarter
Feb 14
Full
Feb 22
Last Quarter
Mar 1
New
Mar 8
First Quarter

Hourly Weather History & Observations

Time (EST) Temp. Heat Index Dew Point Humidity Pressure Visibility Wind Dir Wind Speed Gust Speed Precip Events Conditions
12:15 AM 69.8 °F - - N/A% 30.11 in 6.0 mi NE 5.8 mph - 0.00 in   Overcast
12:35 AM 69.8 °F - - N/A% 30.11 in 2.5 mi North 10.4 mph - 0.00 in   Overcast
12:55 AM 69.8 °F - - N/A% 30.10 in 0.8 mi North 8.1 mph - 0.00 in   Overcast
1:15 AM 66.2 °F - - N/A% 30.10 in 0.8 mi NNE 8.1 mph - 0.00 in   Overcast
1:35 AM 66.2 °F - - N/A% 30.11 in 1.0 mi NNE 6.9 mph - 0.00 in   Overcast
1:55 AM 66.2 °F - - N/A% 30.10 in 0.5 mi NNE 9.2 mph - 0.00 in   Overcast
2:15 AM 64.4 °F - - N/A% 30.10 in 5.0 mi North 10.4 mph - 0.00 in   Overcast
2:35 AM 64.4 °F - - N/A% 30.11 in 5.0 mi North 10.4 mph 18.4 mph 0.00 in   Overcast
2:55 AM 62.6 °F - - N/A% 30.11 in 7.0 mi North 9.2 mph - 0.00 in   Overcast
3:15 AM 62.6 °F - - N/A% 30.10 in 6.0 mi NNE 10.4 mph - 0.00 in   Overcast
3:35 AM 60.8 °F - - N/A% 30.10 in 8.0 mi NNE 11.5 mph - 0.00 in   Overcast
3:55 AM 60.8 °F - - N/A% 30.10 in 6.0 mi NNE 11.5 mph - 0.00 in   Overcast
4:15 AM 60.8 °F - - N/A% 30.10 in 5.0 mi NNE 11.5 mph - 0.00 in   Overcast
4:35 AM 59.0 °F - - N/A% 30.11 in 5.0 mi NE 10.4 mph - 0.00 in   Overcast
4:55 AM 59.0 °F - - N/A% 30.11 in 5.0 mi NE 10.4 mph - 0.00 in   Overcast
5:15 AM 57.2 °F - - N/A% 30.11 in 5.0 mi NNE 11.5 mph - 0.00 in   Overcast
5:35 AM 57.2 °F - - N/A% 30.12 in 3.0 mi NNE 10.4 mph - 0.00 in   Overcast
5:55 AM 57.2 °F - - N/A% 30.12 in 2.0 mi NNE 6.9 mph - 0.00 in   Overcast
6:15 AM 57.2 °F - - N/A% 30.13 in 1.0 mi NE 8.1 mph - 0.00 in   Overcast
6:35 AM 57.2 °F - - N/A% 30.13 in 1.0 mi NNE 6.9 mph - 0.00 in   Overcast
6:55 AM 57.2 °F - - N/A% 30.13 in 1.0 mi NNE 5.8 mph - 0.00 in   Overcast
7:15 AM 57.2 °F - - N/A% 30.14 in 1.2 mi North 5.8 mph - 0.00 in   Overcast
7:35 AM 57.2 °F - - N/A% 30.14 in 0.8 mi North 5.8 mph - 0.00 in   Overcast
7:55 AM 57.2 °F - - N/A% 30.15 in 0.5 mi North 8.1 mph - 0.00 in   Overcast
8:15 AM 57.2 °F - - N/A% 30.15 in 0.2 mi North 8.1 mph - 0.00 in   Overcast
8:35 AM 57.2 °F - - N/A% 30.16 in 0.5 mi North 8.1 mph - 0.00 in   Overcast
8:55 AM 57.2 °F - - N/A% 30.17 in 0.8 mi Calm Calm - 0.00 in   Overcast
9:15 AM 59.0 °F - - N/A% 30.17 in 0.2 mi North 8.1 mph - 0.00 in   Overcast
9:35 AM 60.8 °F - - N/A% 30.17 in 0.2 mi NNE 6.9 mph - 0.00 in   Overcast
9:55 AM 60.8 °F - - N/A% 30.17 in 0.5 mi NE 5.8 mph - 0.00 in   Overcast
10:15 AM 62.6 °F - - N/A% 30.17 in 1.2 mi NNE 5.8 mph - 0.00 in   Overcast
10:35 AM 62.6 °F - - N/A% 30.18 in 8.0 mi ENE 3.5 mph - 0.00 in   Overcast
10:55 AM 64.4 °F - - N/A% 30.17 in 10.0 mi East 4.6 mph - 0.00 in   Overcast
11:15 AM 68.0 °F - 68.0 °F 100% 30.18 in 10.0 mi NE 5.8 mph - 0.00 in   Overcast
11:35 AM 71.6 °F - 69.8 °F 94% 30.17 in 10.0 mi ENE 4.6 mph - 0.00 in   Overcast
11:55 AM 73.4 °F - 69.8 °F 88% 30.16 in 10.0 mi ENE 4.6 mph - 0.00 in   Scattered Clouds
12:15 PM 75.2 °F - 69.8 °F 83% 30.15 in 10.0 mi ENE 5.8 mph - 0.00 in   Clear
12:35 PM 77.0 °F - 69.8 °F 78% 30.14 in 10.0 mi NNE 3.5 mph - 0.00 in   Clear
12:55 PM 78.8 °F - 69.8 °F 74% 30.14 in 10.0 mi Calm Calm - 0.00 in   Clear
1:15 PM 80.6 °F 83.9 °F 69.8 °F 70% 30.12 in 10.0 mi Calm Calm - 0.00 in   Clear
1:35 PM 82.4 °F 87.2 °F 71.6 °F 70% 30.11 in 10.0 mi East 3.5 mph - 0.00 in   Scattered Clouds
1:55 PM 82.4 °F 86.3 °F 69.8 °F 66% 30.10 in 10.0 mi Calm Calm - 0.00 in   Scattered Clouds
2:15 PM 80.6 °F 83.9 °F 69.8 °F 70% 30.09 in 10.0 mi East 3.5 mph - 0.00 in   Partly Cloudy
2:35 PM 84.2 °F 86.6 °F 66.2 °F 55% 30.09 in 10.0 mi SSE 4.6 mph - 0.00 in   Partly Cloudy
2:55 PM 80.6 °F 82.7 °F 66.2 °F 61% 30.09 in 10.0 mi SE 3.5 mph - 0.00 in   Scattered Clouds
3:15 PM 82.4 °F 85.4 °F 68.0 °F 62% 30.08 in 10.0 mi Calm Calm - 0.00 in   Mostly Cloudy
3:35 PM 82.4 °F 84.6 °F 66.2 °F 58% 30.08 in 10.0 mi SE 5.8 mph - 0.00 in   Mostly Cloudy
3:55 PM 82.4 °F 84.6 °F 66.2 °F 58% 30.07 in 10.0 mi SSE 4.6 mph - 0.00 in   Mostly Cloudy
4:15 PM 82.4 °F 84.6 °F 66.2 °F 58% 30.07 in 10.0 mi SSE 4.6 mph - 0.00 in   Mostly Cloudy
4:35 PM 82.4 °F 84.6 °F 66.2 °F 58% 30.07 in 10.0 mi NE 3.5 mph - 0.00 in   Scattered Clouds
4:55 PM 82.4 °F 84.6 °F 66.2 °F 58% 30.07 in 10.0 mi NE 3.5 mph - 0.00 in   Clear
5:15 PM 84.2 °F 86.6 °F 66.2 °F 55% 30.07 in 10.0 mi ESE 4.6 mph - 0.00 in   Clear
5:35 PM 82.4 °F 85.4 °F 68.0 °F 62% 30.08 in 10.0 mi East 4.6 mph - 0.00 in   Clear
5:55 PM 78.8 °F - 69.8 °F 74% 30.08 in 10.0 mi Calm Calm - 0.00 in   Clear
6:15 PM 75.2 °F - 71.6 °F 89% 30.08 in 10.0 mi Calm Calm - 0.00 in   Partly Cloudy
6:35 PM 73.4 °F - 73.4 °F 100% 30.09 in 10.0 mi Calm Calm - 0.00 in   Partly Cloudy
6:55 PM 71.6 °F - 71.6 °F 100% 30.09 in 10.0 mi Calm Calm - 0.00 in   Partly Cloudy
7:15 PM 71.6 °F - 71.6 °F 100% 30.09 in 10.0 mi Calm Calm - 0.00 in   Mostly Cloudy
7:35 PM 73.4 °F - 73.4 °F 100% 30.10 in 10.0 mi West 3.5 mph - 0.00 in   Overcast
7:55 PM 73.4 °F - 73.4 °F 100% 30.11 in 7.0 mi West 6.9 mph - 0.00 in   Mostly Cloudy
8:15 PM 71.6 °F - - N/A% 30.12 in 3.0 mi WNW 4.6 mph - 0.00 in   Mostly Cloudy
8:35 PM 71.6 °F - - N/A% 30.11 in 2.5 mi North 5.8 mph - 0.00 in   Overcast
8:55 PM 69.8 °F - - N/A% 30.12 in 9.0 mi NNE 10.4 mph - 0.00 in   Mostly Cloudy
9:15 PM 68.0 °F - - N/A% 30.13 in 10.0 mi North 8.1 mph - 0.00 in   Mostly Cloudy
9:35 PM 68.0 °F - - N/A% 30.13 in 10.0 mi North 3.5 mph - 0.00 in   Overcast
9:55 PM 68.0 °F - - N/A% 30.14 in 10.0 mi North 3.5 mph - 0.00 in   Overcast
10:15 PM 66.2 °F - - N/A% 30.14 in 5.0 mi North 4.6 mph - 0.00 in   Overcast
10:35 PM 66.2 °F - - N/A% 30.13 in 5.0 mi Calm Calm - 0.01 in   Overcast
10:55 PM 66.2 °F - - N/A% 30.13 in 10.0 mi North 5.8 mph - 0.01 in   Mostly Cloudy
11:15 PM 66.2 °F - - N/A% 30.13 in 10.0 mi NNE 4.6 mph - 0.00 in   Overcast
11:35 PM 66.2 °F - - N/A% 30.13 in 10.0 mi North 5.8 mph - 0.00 in   Mostly Cloudy
11:55 PM 66.2 °F - - N/A% 30.13 in 10.0 mi NE 4.6 mph - 0.00 in   Overcast